Regional Weather Roundup
Issued by NWS

Home | Current Version | Previous Version | Graphics & Text | Print | Product List | Glossary On
Versions: 1 2 3 4 5 6 7 8 9 10 11 12 13 14 15 16 17 18 19 20 21 22 23 24 25 26 27 28 29 30 31 32 33 34 35 36 37 38 39 40 41 42 43 44 45 46 47 48 49 50
000
ASUS43 KOAX 282010
RWRNE

WEATHER ROUNDUP FOR NEBRASKA
NATIONAL WEATHER SERVICE OMAHA NE
300 PM CDT THU JUL 28 2016

NOTES: SATELLITE DATA IS BEING USED TO AUGMENT CLOUD COVER ABOVE
       12000 FEET.
       "FAIR" INDICATES FEW OR NO CLOUDS BELOW 12,000 FEET WITH NO
       SIGNIFICANT WEATHER AND/OR OBSTRUCTIONS TO VISIBILITY.

  * THESE STATIONS DO NOT REPORT WEATHER SUCH AS RAIN...SNOW OR FOG.

NEZ001>004-019>022-054>056-282100-
NEBRASKA PANHANDLE

CITY           SKY/WX    TMP DP  RH WIND       PRES   REMARKS
SCOTTSBLUFF    SUNNY     74  56  53 VRB3      30.18F
ALLIANCE       MOSUNNY   70  57  63 VRB6      30.17S
CHADRON        MOSUNNY   77  55  46 VRB3      30.14F
KIMBALL        MOSUNNY   74  55  52 E12       30.21F
SIDNEY         SUNNY     74  55  51 SE12      30.17F
$$

NEZ057>060-069>072-079>082-282100-
SOUTHWEST NEBRASKA

CITY           SKY/WX    TMP DP  RH WIND       PRES   REMARKS
NORTH PLATTE   RAIN      65  63  93 SE14      30.10F FOG
IMPERIAL       CLOUDY    68  61  78 NE16      30.13F
LEXINGTON      LGT RAIN  73  66  79 NW7       30.10F
MCCOOK         TSTM      75  67  76 NW24G38   30.10R
OGALLALA       MOSUNNY   72  59  65 SE5       30.11F
$$

NEZ005>010-023>029-035>040-094-282100-
NORTH CENTRAL NEBRASKA

CITY           SKY/WX    TMP DP  RH WIND       PRES   REMARKS
VALENTINE      CLOUDY    75  59  57 CALM      30.09F
AINSWORTH      CLOUDY    73  64  75 CALM      30.10F
BROKEN BOW     PTSUNNY   73  66  78 W8        30.12S
O`NEILL        PTSUNNY   78  59  52 N6        30.08F
ORD            CLOUDY    80  62  54 VRB3      30.06S
THEDFORD       CLOUDY    70  63  78 N8        30.10F
$$

NEZ041-046>049-061>064-073>077-083>087-282100-
SOUTH CENTRAL NEBRASKA

CITY           SKY/WX    TMP DP  RH WIND       PRES   REMARKS
GRAND ISLAND   MOSUNNY   83  62  49 N7        30.05R
AURORA         MOSUNNY   82  62  51 E8        30.03S
HASTINGS       CLOUDY    81  65  58 E9        30.04S
HEBRON         MOSUNNY   86  65  50 NE9       30.00F
HOLDREGE       CLOUDY    77  66  69 N7        30.08F
KEARNEY *      PTSUNNY   82  21  10 N3        30.09R
YORK           PTSUNNY   81  64  57 E8        30.03S
$$

NEZ011>018-030>034-042>045-282100-
NORTHEAST NEBRASKA

CITY           SKY/WX    TMP DP  RH WIND       PRES   REMARKS
NORFOLK        MOSUNNY   81  57  43 N13       30.04F
ALBION         CLOUDY    76  62  61 NE8       30.06S
BLAIR          MOSUNNY   82  65  56 N9        30.01F
FREMONT        CLOUDY    82  62  50 N6        30.02F
TEKAMAH        MOSUNNY   83  60  45 NW13G18   30.01S
WAYNE          CLOUDY    80  62  53 CALM      30.05S
$$

NEZ050>053-065>068-078-088>093-282100-
SOUTHEAST NEBRASKA

CITY           SKY/WX    TMP DP  RH WIND       PRES   REMARKS
LINCOLN        MOSUNNY   87  66  49 NE15      30.00F
OMAHA EPPLEY   MOSUNNY   85  64  49 N10       29.99F
BEATRICE       SUNNY     86  65  48 N14       30.00S
FALLS CITY     SUNNY     86  67  52 N12       29.97F
NEBRASKA CITY  MOSUNNY   83  63  51 N6        29.99F
PLATTSMOUTH    SUNNY     83  64  51 N7        30.00F
$$

NEZ044-045-051>053-067-282100-
OMAHA AREA

CITY           SKY/WX    TMP DP  RH WIND       PRES   REMARKS
OMAHA EPPLEY   MOSUNNY   85  64  49 N10       29.99F
BLAIR          MOSUNNY   82  65  56 N9        30.01F
FREMONT        CLOUDY    82  62  50 N6        30.02F
MILLARD        MOSUNNY   83  65  54 N3        29.99F
OFFUTT AFB     MOSUNNY   84  64  51 NE12      29.98F
PLATTSMOUTH    SUNNY     83  64  51 N7        30.00F
WAHOO          FAIR      82  65  56 NE10      30.00F
$$




USA.gov is the U.S. government's official web portal to all federal, state and local government web resources and services.